"Time","Value","Approval","myLocation"
"2023-05-06 00:00",5.92999736805652,"Approved","OW503"
"2023-05-06 01:00",5.927976451032,"Approved","OW503"
"2023-05-06 02:00",5.92695553400748,"Approved","OW503"
"2023-05-06 03:00",5.92593461698296,"Approved","OW503"
"2023-05-06 04:00",5.92591369995844,"Approved","OW503"
"2023-05-06 05:00",5.92489278293392,"Approved","OW503"
"2023-05-06 06:00",5.92387186590941,"Approved","OW503"
"2023-05-06 07:00",5.92285094888489,"Approved","OW503"
"2023-05-06 08:00",5.92183003186037,"Approved","OW503"
"2023-05-06 09:00",5.92080911483585,"Approved","OW503"
"2023-05-06 10:00",5.92078819781133,"Approved","OW503"
"2023-05-06 11:00",5.91976728078681,"Approved","OW503"
"2023-05-06 12:00",5.91974636376229,"Approved","OW503"
"2023-05-06 13:00",5.91872544673778,"Approved","OW503"
"2023-05-06 14:00",5.91970452971326,"Approved","OW503"
"2023-05-06 15:00",5.91968361268874,"Approved","OW503"
"2023-05-06 16:00",5.91966269566422,"Approved","OW503"
"2023-05-06 17:00",5.9196417786397,"Approved","OW503"
"2023-05-06 18:00",5.92062086161518,"Approved","OW503"
"2023-05-06 19:00",5.91959994459066,"Approved","OW503"
"2023-05-06 20:00",5.91957902756615,"Approved","OW503"
"2023-05-06 21:00",5.91855811054163,"Approved","OW503"
"2023-05-06 22:00",5.91853719351711,"Approved","OW503"
"2023-05-06 23:00",5.91651627649259,"Approved","OW503"
"2023-05-07 00:00",5.91549535946807,"Approved","OW503"
"2023-05-07 01:00",5.91447444244355,"Approved","OW503"
"2023-05-07 02:00",5.91345352541903,"Approved","OW503"
"2023-05-07 03:00",5.91243260839451,"Approved","OW503"
"2023-05-07 04:00",5.91241169137,"Approved","OW503"
"2023-05-07 05:00",5.91139077434548,"Approved","OW503"
"2023-05-07 06:00",5.91036985732096,"Approved","OW503"
"2023-05-07 07:00",5.91034894029644,"Approved","OW503"
"2023-05-07 08:00",5.91032802327192,"Approved","OW503"
"2023-05-07 09:00",5.9103071062474,"Approved","OW503"
"2023-05-07 10:00",5.90928618922288,"Approved","OW503"
"2023-05-07 11:00",5.90926527219836,"Approved","OW503"
"2023-05-07 12:00",5.90924435517385,"Approved","OW503"
"2023-05-07 13:00",5.90922343814933,"Approved","OW503"
"2023-05-07 14:00",5.91020252112481,"Approved","OW503"
"2023-05-07 15:00",5.91018160410029,"Approved","OW503"
"2023-05-07 16:00",5.91116068707577,"Approved","OW503"
"2023-05-07 17:00",5.91113977005125,"Approved","OW503"
"2023-05-07 18:00",5.91111885302674,"Approved","OW503"
"2023-05-07 19:00",5.91109793600222,"Approved","OW503"
"2023-05-07 20:00",5.9110770189777,"Approved","OW503"
"2023-05-07 21:00",5.91105610195318,"Approved","OW503"
"2023-05-07 22:00",5.91103518492866,"Approved","OW503"
"2023-05-07 23:00",5.91101426790414,"Approved","OW503"
"2023-05-08 00:00",5.90999335087962,"Approved","OW503"
"2023-05-08 01:00",5.9099724338551,"Approved","OW503"
"2023-05-08 02:00",5.90995151683059,"Approved","OW503"
"2023-05-08 03:00",5.90993059980607,"Approved","OW503"
"2023-05-08 04:00",5.91090968278155,"Approved","OW503"
"2023-05-08 05:00",5.91088876575703,"Approved","OW503"
"2023-05-08 06:00",5.91186784873251,"Approved","OW503"
"2023-05-08 07:00",5.91184693170799,"Approved","OW503"
"2023-05-08 08:00",5.91282601468347,"Approved","OW503"
"2023-05-08 09:00",5.91280509765896,"Approved","OW503"
"2023-05-08 10:00",5.91278418063444,"Approved","OW503"
"2023-05-08 11:00",5.91376326360992,"Approved","OW503"
"2023-05-08 12:00",5.9137423465854,"Approved","OW503"
"2023-05-08 13:00",5.91472142956088,"Approved","OW503"
"2023-05-08 14:00",5.91570051253636,"Approved","OW503"
"2023-05-08 15:00",5.91567959551184,"Approved","OW503"
"2023-05-08 16:00",5.91665867848732,"Approved","OW503"
"2023-05-08 17:00",5.91663776146281,"Approved","OW503"
"2023-05-08 18:00",5.91661684443829,"Approved","OW503"
"2023-05-08 19:00",5.91759592741377,"Approved","OW503"
"2023-05-08 20:00",5.91757501038925,"Approved","OW503"
"2023-05-08 21:00",5.91855409336473,"Approved","OW503"
"2023-05-08 22:00",5.91853317634021,"Approved","OW503"
"2023-05-08 23:00",5.91951225931569,"Approved","OW503"
"2023-05-09 00:00",5.92049134229118,"Approved","OW503"
"2023-05-09 01:00",5.92147042526666,"Approved","OW503"
"2023-05-09 02:00",5.92144950824214,"Approved","OW503"
"2023-05-09 03:00",5.92342859121762,"Approved","OW503"
"2023-05-09 04:00",5.9244076741931,"Approved","OW503"
"2023-05-09 05:00",5.92538675716858,"Approved","OW503"
"2023-05-09 06:00",5.92636584014406,"Approved","OW503"
"2023-05-09 07:00",5.92634492311955,"Approved","OW503"
"2023-05-09 08:00",5.92732400609503,"Approved","OW503"
"2023-05-09 09:00",5.92830308907051,"Approved","OW503"
"2023-05-09 10:00",5.92928217204599,"Approved","OW503"
"2023-05-09 11:00",5.93026125502147,"Approved","OW503"
"2023-05-09 12:00",5.93124033799695,"Approved","OW503"
"2023-05-09 13:00",5.93221942097243,"Approved","OW503"
"2023-05-09 14:00",5.93319850394792,"Approved","OW503"
"2023-05-09 15:00",5.9341775869234,"Approved","OW503"
"2023-05-09 16:00",5.93515666989888,"Approved","OW503"
"2023-05-09 17:00",5.93513575287436,"Approved","OW503"
"2023-05-09 18:00",5.93611483584984,"Approved","OW503"
"2023-05-09 19:00",5.93709391882532,"Approved","OW503"
"2023-05-09 20:00",5.9370730018008,"Approved","OW503"
"2023-05-09 21:00",5.93705208477629,"Approved","OW503"
"2023-05-09 22:00",5.93803116775177,"Approved","OW503"
"2023-05-09 23:00",5.93801025072725,"Approved","OW503"
"2023-05-10 00:00",5.93898933370273,"Approved","OW503"
"2023-05-10 01:00",5.93896841667821,"Approved","OW503"
"2023-05-10 02:00",5.93994749965369,"Approved","OW503"
"2023-05-10 03:00",5.94092658262917,"Approved","OW503"
"2023-05-10 04:00",5.94190566560465,"Approved","OW503"
"2023-05-10 05:00",5.94288474858014,"Approved","OW503"
"2023-05-10 06:00",5.94286383155562,"Approved","OW503"
"2023-05-10 07:00",5.9438429145311,"Approved","OW503"
"2023-05-10 08:00",5.94482199750658,"Approved","OW503"
"2023-05-10 09:00",5.94480108048206,"Approved","OW503"
"2023-05-10 10:00",5.94578016345754,"Approved","OW503"
"2023-05-10 11:00",5.94575924643302,"Approved","OW503"
"2023-05-10 12:00",5.94673832940851,"Approved","OW503"
"2023-05-10 13:00",5.94771741238399,"Approved","OW503"
"2023-05-10 14:00",5.95069649535947,"Approved","OW503"
"2023-05-10 15:00",5.95367557833495,"Approved","OW503"
"2023-05-10 16:00",5.95565466131043,"Approved","OW503"
"2023-05-10 17:00",5.95763374428591,"Approved","OW503"
"2023-05-10 18:00",5.95861282726139,"Approved","OW503"
"2023-05-10 19:00",5.96059191023688,"Approved","OW503"
"2023-05-10 20:00",5.96257099321236,"Approved","OW503"
"2023-05-10 21:00",5.96455007618784,"Approved","OW503"
"2023-05-10 22:00",5.96552915916332,"Approved","OW503"
"2023-05-10 23:00",5.9655082421388,"Approved","OW503"
"2023-05-11 00:00",5.96748732511428,"Approved","OW503"
"2023-05-11 01:00",5.96946640808976,"Approved","OW503"
"2023-05-11 02:00",5.97044549106525,"Approved","OW503"
"2023-05-11 03:00",5.97142457404073,"Approved","OW503"
"2023-05-11 04:00",5.97340365701621,"Approved","OW503"
"2023-05-11 05:00",5.97538273999169,"Approved","OW503"
"2023-05-11 06:00",5.97736182296717,"Approved","OW503"
"2023-05-11 07:00",5.97934090594265,"Approved","OW503"
"2023-05-11 08:00",5.98031998891813,"Approved","OW503"
"2023-05-11 09:00",5.98129907189361,"Approved","OW503"
"2023-05-11 10:00",5.9832781548691,"Approved","OW503"
"2023-05-11 11:00",5.98425723784458,"Approved","OW503"
"2023-05-11 12:00",5.98523632082006,"Approved","OW503"
"2023-05-11 13:00",5.98721540379554,"Approved","OW503"
"2023-05-11 14:00",5.98819448677102,"Approved","OW503"
"2023-05-11 15:00",5.9891735697465,"Approved","OW503"
"2023-05-11 16:00",5.99015265272198,"Approved","OW503"
"2023-05-11 17:00",5.99113173569746,"Approved","OW503"
"2023-05-11 18:00",5.99211081867295,"Approved","OW503"
"2023-05-11 19:00",5.99208990164843,"Approved","OW503"
"2023-05-11 20:00",5.99306898462391,"Approved","OW503"
"2023-05-11 21:00",5.99404806759939,"Approved","OW503"
"2023-05-11 22:00",5.99502715057487,"Approved","OW503"
"2023-05-11 23:00",5.99600623355035,"Approved","OW503"
"2023-05-12 00:00",5.99598531652583,"Approved","OW503"
"2023-05-12 01:00",5.99696439950132,"Approved","OW503"
"2023-05-12 02:00",5.9979434824768,"Approved","OW503"
"2023-05-12 03:00",5.99892256545228,"Approved","OW503"
"2023-05-12 04:00",6.00090164842776,"Approved","OW503"
"2023-05-12 05:00",6.00188073140324,"Approved","OW503"
"2023-05-12 06:00",6.00385981437872,"Approved","OW503"
"2023-05-12 07:00",6.0048388973542,"Approved","OW503"
"2023-05-12 08:00",6.00581798032969,"Approved","OW503"
"2023-05-12 09:00",6.00679706330517,"Approved","OW503"
"2023-05-12 10:00",6.00777614628065,"Approved","OW503"
"2023-05-12 11:00",6.00875522925613,"Approved","OW503"
"2023-05-12 12:00",6.00973431223161,"Approved","OW503"
"2023-05-12 13:00",6.01071339520709,"Approved","OW503"
"2023-05-12 14:00",6.01169247818257,"Approved","OW503"
"2023-05-12 15:00",6.01267156115806,"Approved","OW503"
"2023-05-12 16:00",6.01065064413354,"Approved","OW503"
"2023-05-12 17:00",6.00862972710902,"Approved","OW503"
"2023-05-12 18:00",6.0076088100845,"Approved","OW503"
"2023-05-12 19:00",6.00658789305998,"Approved","OW503"
"2023-05-12 20:00",6.00656697603546,"Approved","OW503"
"2023-05-12 21:00",6.00554605901094,"Approved","OW503"
"2023-05-12 22:00",6.00552514198642,"Approved","OW503"
"2023-05-12 23:00",6.00550422496191,"Approved","OW503"
"2023-05-13 00:00",6.00448330793739,"Approved","OW503"
"2023-05-13 01:00",6.00546239091287,"Approved","OW503"
"2023-05-13 02:00",6.00844147388835,"Approved","OW503"
"2023-05-13 03:00",6.01042055686383,"Approved","OW503"
"2023-05-13 04:00",6.00939963983931,"Approved","OW503"
"2023-05-13 05:00",6.00837872281479,"Approved","OW503"
"2023-05-13 06:00",6.00935780579028,"Approved","OW503"
"2023-05-13 07:00",6.00933688876576,"Approved","OW503"
"2023-05-13 08:00",6.00831597174124,"Approved","OW503"
"2023-05-13 09:00",6.00829505471672,"Approved","OW503"
"2023-05-13 10:00",6.0082741376922,"Approved","OW503"
"2023-05-13 11:00",6.00825322066768,"Approved","OW503"
"2023-05-13 12:00",6.00923230364316,"Approved","OW503"
"2023-05-13 13:00",6.01121138661864,"Approved","OW503"
"2023-05-13 14:00",6.01219046959413,"Approved","OW503"
"2023-05-13 15:00",6.01316955256961,"Approved","OW503"
"2023-05-13 16:00",6.01414863554509,"Approved","OW503"
"2023-05-13 17:00",6.01312771852057,"Approved","OW503"
"2023-05-13 18:00",6.01410680149605,"Approved","OW503"
"2023-05-13 19:00",6.01508588447153,"Approved","OW503"
"2023-05-13 20:00",6.01606496744702,"Approved","OW503"
"2023-05-13 21:00",6.0190440504225,"Approved","OW503"
"2023-05-13 22:00",6.02202313339798,"Approved","OW503"
"2023-05-13 23:00",6.02400221637346,"Approved","OW503"
"2023-05-14 00:00",6.02498129934894,"Approved","OW503"
"2023-05-14 01:00",6.02696038232442,"Approved","OW503"
"2023-05-14 02:00",6.0279394652999,"Approved","OW503"
"2023-05-14 03:00",6.02991854827538,"Approved","OW503"
"2023-05-14 04:00",6.03189763125087,"Approved","OW503"
"2023-05-14 05:00",6.03387671422635,"Approved","OW503"
"2023-05-14 06:00",6.03585579720183,"Approved","OW503"
"2023-05-14 07:00",6.03683488017731,"Approved","OW503"
"2023-05-14 08:00",6.03681396315279,"Approved","OW503"
"2023-05-14 09:00",6.03779304612827,"Approved","OW503"
"2023-05-14 10:00",6.03877212910375,"Approved","OW503"
"2023-05-14 11:00",6.03975121207923,"Approved","OW503"
"2023-05-14 12:00",6.04073029505472,"Approved","OW503"
"2023-05-14 13:00",6.0407093780302,"Approved","OW503"
"2023-05-14 14:00",6.04068846100568,"Approved","OW503"
"2023-05-14 15:00",6.04166754398116,"Approved","OW503"
"2023-05-14 16:00",6.04064662695664,"Approved","OW503"
"2023-05-14 17:00",6.03962570993212,"Approved","OW503"
"2023-05-14 18:00",6.03960479290761,"Approved","OW503"
"2023-05-14 19:00",6.03958387588309,"Approved","OW503"
"2023-05-14 20:00",6.03956295885857,"Approved","OW503"
"2023-05-14 21:00",6.03854204183405,"Approved","OW503"
"2023-05-14 22:00",6.03752112480953,"Approved","OW503"
"2023-05-14 23:00",6.03850020778501,"Approved","OW503"
"2023-05-15 00:00",6.03947929076049,"Approved","OW503"
"2023-05-15 01:00",6.04045837373597,"Approved","OW503"
"2023-05-15 02:00",6.04243745671146,"Approved","OW503"
"2023-05-15 03:00",6.04441653968694,"Approved","OW503"
"2023-05-15 04:00",6.04639562266242,"Approved","OW503"
"2023-05-15 05:00",6.0473747056379,"Approved","OW503"
"2023-05-15 06:00",6.04735378861338,"Approved","OW503"
"2023-05-15 07:00",6.04733287158886,"Approved","OW503"
"2023-05-15 08:00",6.04731195456434,"Approved","OW503"
"2023-05-15 09:00",6.04829103753983,"Approved","OW503"
"2023-05-15 10:00",6.04827012051531,"Approved","OW503"
"2023-05-15 11:00",6.04824920349079,"Approved","OW503"
"2023-05-15 12:00",6.04822828646627,"Approved","OW503"
"2023-05-15 13:00",6.04920736944175,"Approved","OW503"
"2023-05-15 14:00",6.05118645241723,"Approved","OW503"
"2023-05-15 15:00",6.05216553539271,"Approved","OW503"
"2023-05-15 16:00",6.0531446183682,"Approved","OW503"
"2023-05-15 17:00",6.05412370134368,"Approved","OW503"
"2023-05-15 18:00",6.05510278431916,"Approved","OW503"
"2023-05-15 19:00",6.05608186729464,"Approved","OW503"
"2023-05-15 20:00",6.05606095027012,"Approved","OW503"
"2023-05-15 21:00",6.0560400332456,"Approved","OW503"
"2023-05-15 22:00",6.05601911622108,"Approved","OW503"
"2023-05-15 23:00",6.05099819919656,"Approved","OW503"
"2023-05-16 00:00",6.04897728217205,"Approved","OW503"
"2023-05-16 01:00",6.04795636514753,"Approved","OW503"
"2023-05-16 02:00",6.04693544812301,"Approved","OW503"
"2023-05-16 03:00",6.04791453109849,"Approved","OW503"
"2023-05-16 04:00",6.04789361407397,"Approved","OW503"
"2023-05-16 05:00",6.04787269704945,"Approved","OW503"
"2023-05-16 06:00",6.04785178002493,"Approved","OW503"
"2023-05-16 07:00",6.04883086300041,"Approved","OW503"
"2023-05-16 08:00",6.0498099459759,"Approved","OW503"
"2023-05-16 09:00",6.04978902895138,"Approved","OW503"
"2023-05-16 10:00",6.04976811192686,"Approved","OW503"
"2023-05-16 11:00",6.05074719490234,"Approved","OW503"
"2023-05-16 12:00",6.05072627787782,"Approved","OW503"
"2023-05-16 13:00",6.0537053608533,"Approved","OW503"
"2023-05-16 14:00",6.05868444382879,"Approved","OW503"
"2023-05-16 15:00",6.06166352680427,"Approved","OW503"
"2023-05-16 16:00",6.06464260977975,"Approved","OW503"
"2023-05-16 17:00",6.06662169275523,"Approved","OW503"
"2023-05-16 18:00",6.06660077573071,"Approved","OW503"
"2023-05-16 19:00",6.06657985870619,"Approved","OW503"
"2023-05-16 20:00",6.06655894168167,"Approved","OW503"
"2023-05-16 21:00",6.06453802465715,"Approved","OW503"
"2023-05-16 22:00",6.06251710763264,"Approved","OW503"
"2023-05-16 23:00",6.06249619060812,"Approved","OW503"
"2023-05-17 00:00",6.0644752735836,"Approved","OW503"
"2023-05-17 01:00",6.06545435655908,"Approved","OW503"
"2023-05-17 02:00",6.06643343953456,"Approved","OW503"
"2023-05-17 03:00",6.06641252251004,"Approved","OW503"
"2023-05-17 04:00",6.06939160548552,"Approved","OW503"
"2023-05-17 05:00",6.06937068846101,"Approved","OW503"
"2023-05-17 06:00",6.06334977143649,"Approved","OW503"
"2023-05-17 07:00",6.06032885441197,"Approved","OW503"
"2023-05-17 08:00",6.05930793738745,"Approved","OW503"
"2023-05-17 09:00",6.05828702036293,"Approved","OW503"
"2023-05-17 10:00",6.05726610333841,"Approved","OW503"
"2023-05-17 11:00",6.05724518631389,"Approved","OW503"
"2023-05-17 12:00",6.05722426928938,"Approved","OW503"
"2023-05-17 13:00",6.06020335226486,"Approved","OW503"
"2023-05-17 14:00",6.06418243524034,"Approved","OW503"
"2023-05-17 15:00",6.06616151821582,"Approved","OW503"
"2023-05-17 16:00",6.0681406011913,"Approved","OW503"
"2023-05-17 17:00",6.06911968416678,"Approved","OW503"
"2023-05-17 18:00",6.07009876714226,"Approved","OW503"
"2023-05-17 19:00",6.07007785011774,"Approved","OW503"
"2023-05-17 20:00",6.07105693309323,"Approved","OW503"
"2023-05-17 21:00",6.06803601606871,"Approved","OW503"
"2023-05-17 22:00",6.06701509904419,"Approved","OW503"
"2023-05-17 23:00",6.06699418201967,"Approved","OW503"
"2023-05-18 00:00",6.06697326499515,"Approved","OW503"
"2023-05-18 01:00",6.06795234797063,"Approved","OW503"
"2023-05-18 02:00",6.06793143094611,"Approved","OW503"
"2023-05-18 03:00",6.0689105139216,"Approved","OW503"
"2023-05-18 04:00",6.07088959689708,"Approved","OW503"
"2023-05-18 05:00",6.07086867987256,"Approved","OW503"
"2023-05-18 06:00",6.06684776284804,"Approved","OW503"
"2023-05-18 07:00",6.06582684582352,"Approved","OW503"
"2023-05-18 08:00",6.064805928799,"Approved","OW503"
"2023-05-18 09:00",6.06478501177448,"Approved","OW503"
"2023-05-18 10:00",6.06376409474997,"Approved","OW503"
"2023-05-18 11:00",6.06374317772545,"Approved","OW503"
"2023-05-18 12:00",6.06472226070093,"Approved","OW503"
"2023-05-18 13:00",6.06770134367641,"Approved","OW503"
"2023-05-18 14:00",6.07068042665189,"Approved","OW503"
"2023-05-18 15:00",6.07365950962737,"Approved","OW503"
"2023-05-18 16:00",6.07463859260285,"Approved","OW503"
"2023-05-18 17:00",6.07661767557833,"Approved","OW503"
"2023-05-18 18:00",6.07659675855382,"Approved","OW503"
"2023-05-18 19:00",6.0775758415293,"Approved","OW503"
"2023-05-18 20:00",6.07755492450478,"Approved","OW503"
"2023-05-18 21:00",6.07753400748026,"Approved","OW503"
"2023-05-18 22:00",6.07951309045574,"Approved","OW503"
"2023-05-18 23:00",6.08249217343122,"Approved","OW503"
"2023-05-19 00:00",6.0884712564067,"Approved","OW503"
"2023-05-19 01:00",6.09545033938219,"Approved","OW503"
"2023-05-19 02:00",6.10042942235767,"Approved","OW503"
"2023-05-19 03:00",6.10540850533315,"Approved","OW503"
"2023-05-19 04:00",6.11038758830863,"Approved","OW503"
"2023-05-19 05:00",6.11236667128411,"Approved","OW503"
"2023-05-19 06:00",6.11134575425959,"Approved","OW503"
"2023-05-19 07:00",6.11232483723507,"Approved","OW503"
"2023-05-19 08:00",6.11330392021056,"Approved","OW503"
"2023-05-19 09:00",6.11428300318604,"Approved","OW503"
"2023-05-19 10:00",6.11626208616152,"Approved","OW503"
"2023-05-19 11:00",6.118241169137,"Approved","OW503"
"2023-05-19 12:00",6.11922025211248,"Approved","OW503"
"2023-05-19 13:00",6.12319933508796,"Approved","OW503"
"2023-05-19 14:00",6.12917841806344,"Approved","OW503"
"2023-05-19 15:00",6.12915750103893,"Approved","OW503"
"2023-05-19 16:00",6.13013658401441,"Approved","OW503"
"2023-05-19 17:00",6.13211566698989,"Approved","OW503"
"2023-05-19 18:00",6.13409474996537,"Approved","OW503"
"2023-05-19 19:00",6.13507383294085,"Approved","OW503"
"2023-05-19 20:00",6.13605291591633,"Approved","OW503"
"2023-05-19 21:00",6.13603199889181,"Approved","OW503"
"2023-05-19 22:00",6.13701108186729,"Approved","OW503"
"2023-05-19 23:00",6.13799016484278,"Approved","OW503"
"2023-05-20 00:00",6.13996924781826,"Approved","OW503"
"2023-05-20 01:00",6.14094833079374,"Approved","OW503"
"2023-05-20 02:00",6.14192741376922,"Approved","OW503"
"2023-05-20 03:00",6.1439064967447,"Approved","OW503"
"2023-05-20 04:00",6.14688557972018,"Approved","OW503"
"2023-05-20 05:00",6.14786466269566,"Approved","OW503"
"2023-05-20 06:00",6.14584374567115,"Approved","OW503"
"2023-05-20 07:00",6.14682282864663,"Approved","OW503"
"2023-05-20 08:00",6.14680191162211,"Approved","OW503"
"2023-05-20 09:00",6.14778099459759,"Approved","OW503"
"2023-05-20 10:00",6.14876007757307,"Approved","OW503"
"2023-05-20 11:00",6.14973916054855,"Approved","OW503"
"2023-05-20 12:00",6.15171824352403,"Approved","OW503"
"2023-05-20 13:00",6.15469732649952,"Approved","OW503"
"2023-05-20 14:00",6.156676409475,"Approved","OW503"
"2023-05-20 15:00",6.15765549245048,"Approved","OW503"
"2023-05-20 16:00",6.15763457542596,"Approved","OW503"
"2023-05-20 17:00",6.15861365840144,"Approved","OW503"
"2023-05-20 18:00",6.15859274137692,"Approved","OW503"
"2023-05-20 19:00",6.1595718243524,"Approved","OW503"
"2023-05-20 20:00",6.16055090732788,"Approved","OW503"
"2023-05-20 21:00",6.16152999030337,"Approved","OW503"
"2023-05-20 22:00",6.16250907327885,"Approved","OW503"
"2023-05-20 23:00",6.16248815625433,"Approved","OW503"
"2023-05-21 00:00",6.16246723922981,"Approved","OW503"
"2023-05-21 01:00",6.16344632220529,"Approved","OW503"
"2023-05-21 02:00",6.16442540518077,"Approved","OW503"
"2023-05-21 03:00",6.16740448815625,"Approved","OW503"
"2023-05-21 04:00",6.16938357113174,"Approved","OW503"
"2023-05-21 05:00",6.17036265410722,"Approved","OW503"
"2023-05-21 06:00",6.1713417370827,"Approved","OW503"
"2023-05-21 07:00",6.17132082005818,"Approved","OW503"
"2023-05-21 08:00",6.17229990303366,"Approved","OW503"
"2023-05-21 09:00",6.17327898600914,"Approved","OW503"
"2023-05-21 10:00",6.17525806898462,"Approved","OW503"
"2023-05-21 11:00",6.1762371519601,"Approved","OW503"
"2023-05-21 12:00",6.17821623493559,"Approved","OW503"
"2023-05-21 13:00",6.18019531791107,"Approved","OW503"
"2023-05-21 14:00",6.18117440088655,"Approved","OW503"
"2023-05-21 15:00",6.18315348386203,"Approved","OW503"
"2023-05-21 16:00",6.18413256683751,"Approved","OW503"
"2023-05-21 17:00",6.18611164981299,"Approved","OW503"
"2023-05-21 18:00",6.18609073278848,"Approved","OW503"
"2023-05-21 19:00",6.18506981576396,"Approved","OW503"
"2023-05-21 20:00",6.18104889873944,"Approved","OW503"
"2023-05-21 21:00",6.17602798171492,"Approved","OW503"
"2023-05-21 22:00",6.1720070646904,"Approved","OW503"
"2023-05-21 23:00",6.16898614766588,"Approved","OW503"
"2023-05-22 00:00",6.16596523064136,"Approved","OW503"
"2023-05-22 01:00",6.16294431361684,"Approved","OW503"
"2023-05-22 02:00",6.16492339659233,"Approved","OW503"
"2023-05-22 03:00",6.16790247956781,"Approved","OW503"
"2023-05-22 04:00",6.17188156254329,"Approved","OW503"
"2023-05-22 05:00",6.17586064551877,"Approved","OW503"
"2023-05-22 06:00",6.17783972849425,"Approved","OW503"
"2023-05-22 07:00",6.17981881146973,"Approved","OW503"
"2023-05-22 08:00",6.18279789444521,"Approved","OW503"
"2023-05-22 09:00",6.1837769774207,"Approved","OW503"
"2023-05-22 10:00",6.18575606039618,"Approved","OW503"
"2023-05-22 11:00",6.18773514337166,"Approved","OW503"
"2023-05-22 12:00",6.18871422634714,"Approved","OW503"
"2023-05-22 13:00",6.18969330932262,"Approved","OW503"
"2023-05-22 14:00",6.1916723922981,"Approved","OW503"
"2023-05-22 15:00",6.19165147527358,"Approved","OW503"
"2023-05-22 16:00",6.19363055824907,"Approved","OW503"
"2023-05-22 17:00",6.19360964122455,"Approved","OW503"
"2023-05-22 18:00",6.19358872420003,"Approved","OW503"
"2023-05-22 19:00",6.19356780717551,"Approved","OW503"
"2023-05-22 20:00",6.19754689015099,"Approved","OW503"
"2023-05-22 21:00",6.19852597312647,"Approved","OW503"
"2023-05-22 22:00",6.19750505610195,"Approved","OW503"
"2023-05-22 23:00",6.19248413907743,"Approved","OW503"
"2023-05-23 00:00",6.19046322205292,"Approved","OW503"
"2023-05-23 01:00",6.1884423050284,"Approved","OW503"
"2023-05-23 02:00",6.18742138800388,"Approved","OW503"
"2023-05-23 03:00",6.18640047097936,"Approved","OW503"
"2023-05-23 04:00",6.18837955395484,"Approved","OW503"
"2023-05-23 05:00",6.18935863693032,"Approved","OW503"
"2023-05-23 06:00",6.1913377199058,"Approved","OW503"
"2023-05-23 07:00",6.19731680288129,"Approved","OW503"
"2023-05-23 08:00",6.19929588585677,"Approved","OW503"
"2023-05-23 09:00",6.20127496883225,"Approved","OW503"
"2023-05-23 10:00",6.19925405180773,"Approved","OW503"
"2023-05-23 11:00",6.19723313478321,"Approved","OW503"
"2023-05-23 12:00",6.19621221775869,"Approved","OW503"
"2023-05-23 13:00",6.19719130073417,"Approved","OW503"
"2023-05-23 14:00",6.19817038370966,"Approved","OW503"
"2023-05-23 15:00",6.19914946668514,"Approved","OW503"
"2023-05-23 16:00",6.19912854966062,"Approved","OW503"
"2023-05-23 17:00",6.2001076326361,"Approved","OW503"
"2023-05-23 18:00",6.20108671561158,"Approved","OW503"
"2023-05-23 19:00",6.20206579858706,"Approved","OW503"